Showing default

MIDAS 5 (STRONGBACK), 271

Orbit data source: Space-Track

MIDAS 5 (STRONGBACK), 271 is a payload satellite owned by USAF SSD (US) in LEO that was launched on Mon, 09 Apr 1962 UTC via an ATLAS AGENA B launch vehicle from the Air Force Western Test Range (AFWTR). Payload-class satellites include a variety of spacecraft equipped with specific instruments for various scientific and technological missions. These include communications satellites like Starlink; space stations such as the ISS; scientific satellites like the Hubble; Earth observation satellites from companies like Planet Labs, Umbra, and HawkEye 360; GPS; miniature CubeSats for education and research; and military/defense satellites.

Loading next visibility...
Identifier
271, 1962-010A
Orbit
LEO
Last TLE update
16 hours ago
Origin
Manufacturer
LMSC
Mission
Defense Early Warn
Bus & Motor
MIDAS, Unknown motor
Mass
~1,543 kg wet, ~840 kg dry
Launch date (UTC)
1962-04-09 (63 years ago)
Launch vehicle
ATLAS AGENA B
Launch site
Air Force Western Test Range (AFWTR)
Object type
Payload
Rocket body
Debris
Shape & HBR
Cyl, 8.99 m
Radar Cross Section
11.475 m², Large (>1 m²)

Expand to show TLE details & history

TLE from 16 hours ago
0 MIDAS 5 (STRONGBACK)
1 00271U 62010A   25183.46532893  .00000004  00000-0 -22153-3 0  9999
2 00271  86.6707   6.6663 0328286  99.1699 264.6489  9.41307676172760
Epoch: 2025-07-02T11:10Z
TLE epoch observation values (Epoch: 2025-07-02T11:10:04.419Z)
Latitude
-0.00008°
Longitude
-81.59816°
Altitude
3,138.291 km
Speed
6.459 km/s
True Right ascension
00h 26m 39s
True Declination
0° 00' 00"
Sunlit
Object was in daylight at epoch
Visualization orbit readout
Latitude
82.36516°
Longitude
-56.0924°
Altitude
2,809.704 km
Speed
6.697 km/s
Apparent Right ascension
02h 39m 46s
Apparent Declination
39° 22' 53"
Sunlit
Object is in daylight
Visualization observer readout
Local Sidereal Time
14:47:30
Azimuth
1.522° NNE
Elevation
-10.683°
Doppler factor
1
Orbital elements
Apogee altitude
3,405.576 km
Perigee altitude
2,783.622 km
Semi-major axis
9,472.736 km
Eccentricity
0.03283
Inclination
86.6707°
RAAN
6.6663°
Arg. of periapsis
99.1699°
True anomaly
Unknown
Mean anomaly
264.6489°
Eccentric anomaly
Unknown
Mean motion
2.35413 °/min
Orbital period
152.92 mins
BSTAR
-0.00022153
Loading maneuver chart data...
Loading SW <> Apogee altitude chart data...
Loading historical data...
Loading historical data...
Loading historical data...
Loading historical data...
Loading historical data...
Loading historical data...
Loading historical data...

MIDAS 5 (STRONGBACK) Visibility forecast

Observer location: undefined°, undefined°

Span
Click to sort rows by Start time (UTC) header in descending order
Start Az.
Max El. time (UTC)
Max El. Az.
Max El.
End time (UTC)
End Az.
14 mins2025-07-03 03:15:23.422Z327.684° NNW2025-07-03 03:21:23.422Z301.49° NW15.546°2025-07-03 03:29:23.422Z267.598° W
19 mins2025-07-03 10:17:23.422Z106.19° ESE2025-07-03 10:26:23.422Z65.998° ENE21.868°2025-07-03 10:36:23.422Z21.595° NNE
29 mins2025-07-03 12:42:23.422Z180.853° SSW2025-07-03 12:57:23.422Z296.768° NW44.91°2025-07-03 13:11:23.422Z1.998° NNE
18 mins2025-07-03 15:24:23.422Z259.4° W2025-07-03 15:33:23.422Z298.85° NW19.105°2025-07-03 15:42:23.422Z339.326° N
10 mins2025-07-03 21:07:23.422Z35.709° NE2025-07-03 21:11:23.422Z53.057° ENE12.911°2025-07-03 21:17:23.422Z78.355° E
28 mins2025-07-03 23:36:23.422Z2.798° NNE2025-07-03 23:49:23.422Z87.321° E42.82°2025-07-04 00:04:23.422Z166.691° S
23 mins2025-07-04 02:10:23.422Z340.706° N2025-07-04 02:21:23.422Z286.108° WNW28.072°2025-07-04 02:33:23.422Z232.945° WSW
|